User: anonymous   Login
Location: Fort Wayne
(41.1310°N, 85.1290°W)
Time: 21:29:28
(UTC-04:00)
Language:

Tiros 1 despin weight - Orbit

View from above orbital plane
View from above orbital plane
View from above satellite
View from above satellite

Ground track
Ground track

The orbit data is extracted from the following two-line orbital elements,

1   115U 60002D   18170.47369619 -.00000068 +00000-0 +18992-4 0  9995
2   115 048.1652 178.8488 0035612 276.6777 083.0083 14.83302918083583
Epoch (UTC): 19 June 2018 11:22:07
Eccentricity: 0.0035612
inclination: 48.1652°
perigee height: 594 km
apogee height: 644 km
right ascension of ascending node: 178.8488°
argument of perigee: 276.6777°
revolutions per day: 14.83302918
mean anomaly at epoch: 83.0083°
orbit number at epoch: 8358

The dashed part of the orbit path shows where the satellite is in the earth's shadow,  

DLR